Wind_Speed
11 10 10 11 7 8 17 18 7 3 6 6 5 5 12 11 10 4 11 9 21 25 27 28 28 32 32 30 29 27 27 27 27 26 26 26 25 24 23 22 20 19 19 19 18 18 19 19 19
8 10 9 9 8 13 12 19 9 14 11 5 3 2 4 8 12 8 11 12 23 27 29 25 29 32 33 31 30 28 28 27 28 27 27 25 24 24 23 22 20 19 18 17 18 19 20 20 18
8 9 8 7 13 14 14 8 4 5 5 4 4 5 3 11 8 7 7 22 25 26 29 26 30 31 34 33 32 29 30 29 29 27 27 26 24 24 23 21 19 18 16 16 18 20 20 18 18
7 8 5 10 16 13 17 7 5 2 3 2 4 8 8 10 6 8 14 22 24 26 27 29 30 29 34 34 33 31 30 30 30 28 27 25 23 22 22 20 18 17 16 16 19 20 19 18 17
12 7 11 14 17 17 0 10 5 11 4 6 6 3 7 13 8 4 16 22 23 24 25 29 31 28 31 35 34 32 31 30 30 28 26 25 23 21 20 19 18 17 17 18 20 20 19 18 16
8 6 12 14 17 12 8 9 8 10 11 10 9 6 6 10 11 5 12 19 21 23 22 25 31 29 30 34 35 33 31 31 30 28 26 24 22 21 19 18 17 17 17 19 20 20 19 17 15
13 11 15 18 16 4 1 7 10 11 13 11 7 12 5 13 9 4 11 16 19 21 20 24 25 29 29 33 34 33 32 31 30 27 25 24 22 20 18 18 17 17 17 19 20 19 18 15 13
10 12 18 16 14 12 2 7 12 10 13 12 5 6 3 8 8 4 11 16 19 18 19 23 23 23 25 28 33 32 32 30 29 26 25 23 21 19 18 18 18 17 18 19 20 19 18 14 11
10 10 13 16 12 9 7 4 9 10 11 12 8 8 11 6 5 3 10 17 19 19 21 23 24 24 23 23 27 31 31 29 28 25 23 22 16 17 17 15 17 18 18 19 19 19 17 14 11
10 11 16 10 13 8 11 10 9 12 15 11 9 10 5 3 2 2 10 16 20 22 23 24 25 26 25 23 24 25 24 24 23 20 21 18 16 16 15 16 16 18 18 19 19 19 18 15 10
7 14 9 5 10 8 13 14 14 8 13 14 14 11 9 6 5 4 9 15 22 23 24 25 25 26 27 25 24 26 24 24 22 21 20 20 18 16 16 15 15 16 19 16 19 19 16 14 13
9 8 3 9 5 12 14 16 19 17 14 18 17 17 15 14 7 6 7 14 19 26 27 26 26 26 27 25 25 26 26 26 25 24 23 22 20 19 18 17 17 17 18 17 17 17 17 16 16
10 7 4 7 11 12 17 20 21 25 19 13 18 19 19 19 17 15 11 9 17 26 28 28 28 27 28 22 26 26 26 27 25 25 26 25 22 20 19 18 18 18 18 19 19 18 18 18 17
5 7 10 11 11 11 16 17 17 20 16 11 8 15 17 20 17 18 15 14 14 24 29 30 30 29 28 26 25 24 26 27 26 25 26 28 23 21 21 19 19 19 19 19 18 18 17 18 17
6 10 9 3 4 14 13 17 20 19 20 21 22 20 21 19 24 20 16 16 16 21 28 31 30 30 30 29 26 27 26 25 26 25 25 29 24 21 21 21 20 20 19 19 18 18 17 16 16
4 5 6 6 10 8 10 17 20 12 9 14 16 16 18 18 19 25 26 18 20 21 27 31 32 32 31 31 28 28 26 26 25 25 26 27 27 23 23 22 21 20 19 19 19 18 18 18 17
7 9 12 13 12 9 7 16 15 21 21 22 20 20 18 19 20 22 22 25 20 20 25 30 32 33 33 31 30 29 27 27 26 26 26 27 27 26 23 23 22 21 20 20 20 19 18 17 17
9 11 11 13 12 14 17 19 19 19 22 23 22 21 21 20 20 24 25 21 21 21 22 27 31 32 30 31 30 29 28 28 27 27 27 25 27 27 27 24 23 22 22 22 21 20 20 19 17
8 12 15 14 12 14 18 21 22 20 20 23 23 21 20 22 18 19 23 25 18 21 21 25 29 30 31 33 31 31 29 29 29 28 27 27 26 27 29 28 25 24 24 24 24 22 19 20 19
10 13 13 13 14 15 18 18 18 24 24 26 22 20 19 19 14 16 24 23 23 19 25 23 27 31 34 33 32 31 30 29 29 28 27 29 29 29 30 29 27 28 25 24 24 24 21 22 20
9 10 13 14 15 18 17 10 19 22 24 26 28 13 10 11 13 15 16 22 20 19 22 22 24 28 33 35 31 29 29 28 27 27 28 28 30 29 29 30 31 27 29 25 26 25 25 20 21
8 11 11 14 13 12 13 10 19 19 20 21 25 24 23 16 13 14 10 13 13 17 12 19 23 25 27 30 30 31 29 27 27 26 27 28 29 31 31 32 31 32 26 28 24 27 26 25 20
7 14 12 11 13 8 8 3 7 15 16 19 22 25 24 23 19 16 16 22 21 23 18 14 16 23 25 26 30 22 25 25 24 27 26 28 26 31 31 31 31 29 30 26 29 26 29 26 25
10 15 19 10 9 5 2 6 11 8 7 11 15 19 20 20 21 21 24 24 25 24 24 25 13 14 21 24 26 29 25 22 19 20 19 20 23 23 29 30 30 31 30 31 28 30 26 30 27
13 14 5 2 4 3 15 10 5 8 11 12 13 13 15 17 18 20 22 27 29 29 30 27 30 23 28 10 21 23 25 22 23 21 19 18 21 19 18 27 29 30 32 31 31 29 33 31 32
8 8 5 5 8 6 12 4 4 6 14 11 12 11 15 14 16 18 24 25 26 31 34 34 34 33 28 27 25 12 5 21 24 22 22 21 23 27 28 33 28 27 29 31 31 31 31 33 33
6 7 7 5 9 4 4 3 8 10 12 13 12 15 13 14 14 17 20 26 28 32 33 33 33 33 34 30 28 32 28 18 13 13 4 11 18 20 17 27 29 29 30 31 29 30 31 31 33
3 7 2 1 5 5 3 7 7 11 9 8 11 13 13 12 14 14 20 22 26 29 31 32 32 32 31 33 37 33 30 30 29 23 20 13 9 11 13 14 22 27 27 29 30 30 31 31 31
3 4 2 3 4 4 5 5 7 8 7 8 7 6 12 12 11 15 16 21 21 26 26 28 30 29 29 28 30 29 29 31 29 27 24 24 22 16 8 9 12 20 27 26 27 28 28 29 30
1 3 3 3 3 4 3 4 7 7 4 6 8 6 7 11 10 10 14 20 22 23 24 25 26 27 27 25 24 24 25 27 29 28 28 23 22 20 21 17 11 4 6 9 11 16 26 29 28
Wind_Direction
309 295 287 270 246 232 255 235 274 1 217 67 16 349 351 326 333 39 137 136 146 149 160 165 170 172 173 174 171 166 164 165 161 157 153 149 147 146 146 144 141 139 134 133 134 133 132 127 125
300 292 247 274 247 247 227 247 142 246 78 15 342 204 246 51 43 101 140 158 155 154 162 165 172 176 177 177 176 171 167 168 165 161 157 155 152 150 150 149 147 144 141 138 136 137 134 131 130
287 264 266 233 236 251 263 226 161 193 57 340 312 357 342 60 50 124 107 153 155 157 162 170 173 178 181 181 179 177 172 172 170 166 162 160 157 154 154 154 153 150 147 143 143 140 137 137 135
253 216 245 251 260 236 278 44 275 15 191 226 338 303 108 54 21 351 154 158 158 161 164 175 176 180 183 185 182 180 178 176 174 169 167 166 163 160 161 160 159 157 154 150 148 146 144 141 141
230 263 251 236 246 264 266 314 11 294 337 290 329 319 55 50 38 106 153 163 162 163 164 175 176 180 182 185 186 184 181 179 178 174 172 172 170 167 166 166 166 164 161 158 155 151 148 145 145
233 253 245 244 236 237 287 308 277 270 269 274 285 303 59 60 42 121 161 164 166 165 164 171 178 181 184 186 189 187 184 182 181 178 177 177 176 175 173 172 171 170 167 163 160 157 154 149 146
248 231 248 264 271 248 345 330 292 277 271 259 322 293 98 71 34 129 163 168 170 169 166 171 175 182 187 189 191 189 187 185 184 182 181 181 180 180 179 177 177 176 171 168 166 163 163 158 154
262 260 259 255 257 263 39 327 292 273 274 293 328 261 92 49 17 129 173 176 174 170 170 173 177 177 179 188 194 192 190 187 186 185 185 183 182 183 183 182 182 180 176 174 173 171 172 172 170
243 250 247 250 246 226 110 280 320 328 291 284 250 272 59 49 30 161 175 177 180 180 179 178 179 180 179 181 190 194 192 189 188 187 188 184 178 184 192 181 195 184 182 180 181 182 183 186 190
234 236 256 22 5 0 348 310 308 305 287 260 249 269 128 43 88 234 197 195 192 189 185 184 182 181 180 181 184 184 186 186 185 185 189 182 187 189 189 192 203 190 188 188 189 191 195 199 206
260 246 9 70 35 345 303 291 290 284 276 274 308 306 276 18 297 235 229 216 201 196 190 189 187 184 180 181 181 183 189 188 189 190 190 190 190 192 192 194 198 194 194 193 197 201 205 212 215
268 237 10 306 354 307 294 301 288 282 279 296 302 310 308 299 276 266 223 231 211 198 196 192 190 189 189 182 183 185 186 188 189 193 193 194 194 192 197 197 194 193 198 198 201 209 212 217 225
240 296 336 296 301 290 286 276 278 275 284 265 271 278 278 276 268 255 260 242 228 203 201 196 193 192 195 191 188 190 189 190 192 192 196 198 197 194 198 200 197 198 198 201 204 211 216 222 228
15 304 284 272 281 290 298 287 274 272 281 290 243 273 284 284 270 268 261 251 236 214 203 200 199 196 196 197 192 194 192 191 194 195 200 203 200 195 200 202 202 203 204 205 209 212 218 224 230
313 283 270 183 6 308 328 284 254 267 255 262 266 268 274 270 275 276 256 251 223 227 214 200 203 199 200 201 195 196 196 197 198 200 201 202 203 200 203 205 206 207 208 207 211 214 220 225 231
271 236 344 128 338 308 316 292 295 337 343 312 311 299 296 288 277 265 260 249 244 218 218 209 205 206 203 203 200 198 202 202 203 204 204 206 206 207 205 209 210 211 210 211 214 215 218 225 231
71 333 327 308 313 306 288 304 302 307 299 292 291 293 287 287 284 269 264 249 247 226 217 214 207 211 202 209 207 204 205 203 208 208 208 207 209 209 209 214 215 210 211 214 215 217 220 224 231
335 328 320 317 334 311 307 300 304 299 290 287 286 283 283 283 280 282 281 268 244 234 212 213 210 207 208 208 209 211 209 207 211 212 213 206 211 212 214 217 219 209 214 214 214 219 217 225 231
312 308 309 313 336 316 310 301 299 302 286 284 283 273 270 272 279 286 276 273 261 256 232 211 204 207 211 208 207 214 208 209 210 216 215 211 211 213 215 218 217 214 216 218 214 215 221 218 225
319 323 327 320 341 314 297 297 298 27 11 346 287 275 267 264 294 299 287 273 260 250 249 214 214 206 209 214 213 211 214 216 215 215 219 214 213 213 215 217 221 215 218 220 220 212 217 224 218
347 1 339 323 319 288 288 292 44 21 17 349 1 306 299 328 309 295 283 284 296 242 245 230 220 214 211 215 214 216 218 220 216 217 217 218 219 217 216 215 219 222 213 218 217 217 216 221 224
299 355 317 313 322 325 321 291 37 15 19 16 1 7 359 342 319 299 328 305 295 303 281 248 224 222 214 213 221 217 213 217 219 220 225 225 223 223 223 221 219 222 218 217 218 219 220 224 232
324 321 295 288 292 315 337 293 11 24 10 8 4 8 8 359 9 15 10 5 16 2 334 304 283 219 215 212 222 226 225 220 223 221 229 220 225 220 225 224 222 222 225 220 218 219 217 221 225
289 303 279 242 281 307 270 309 48 5 357 16 8 357 8 7 17 24 28 24 25 14 9 1 309 269 218 212 213 224 226 231 232 247 227 226 226 229 220 227 225 222 222 224 221 220 220 216 221
352 340 351 288 225 31 72 72 49 344 24 23 13 6 4 4 19 30 34 34 33 32 30 26 23 22 12 333 221 222 232 228 230 237 231 226 237 239 229 220 225 226 224 224 222 219 221 221 220
21 14 355 308 347 332 23 44 62 9 32 23 359 13 354 21 8 28 22 20 21 30 34 34 35 32 32 33 29 32 302 233 226 235 232 238 223 220 230 230 223 226 231 228 224 225 224 223 225
343 6 346 282 270 286 134 151 223 37 31 26 16 357 5 12 7 9 25 25 20 23 25 27 31 34 36 38 37 34 36 31 9 8 328 253 248 257 238 210 210 218 231 234 231 229 229 227 226
7 6 304 319 320 326 142 83 18 1 10 356 37 18 358 358 14 19 15 27 25 25 24 24 27 34 32 31 34 34 34 37 40 42 31 13 321 291 268 249 216 216 224 228 229 232 233 232 230
4 28 5 300 330 313 317 71 14 9 25 17 357 30 17 25 20 17 19 19 30 25 22 23 23 24 24 28 30 30 33 34 36 37 42 39 36 24 341 283 255 241 235 235 227 227 230 231 232
14 352 21 315 35 347 269 68 39 20 18 8 12 34 50 18 54 42 25 24 21 21 18 14 16 20 17 18 25 26 29 30 30 24 33 28 32 30 30 24 24 318 260 243 237 242 235 234 235
Height
779 776 774 767 775 757 754 737 712 724 731 719 723 731 736 729 732 756 742 748 750 759 766 769 773 778 782 787 790 793 796 801 804 806 809 811 813 816 819 821 823 825 826 827 829 830 831 833 835
779 776 771 760 774 764 747 723 728 727 719 724 725 727 730 734 724 739 744 749 753 758 766 770 773 778 783 788 791 795 797 802 805 808 810 813 815 818 820 823 825 828 828 829 831 833 834 836 838
778 776 768 764 762 762 742 713 719 718 723 730 733 726 730 735 735 739 745 749 754 760 766 770 773 778 783 788 792 796 798 802 806 809 812 815 817 819 822 824 827 829 830 831 833 835 837 839 840
774 769 763 774 762 739 733 724 724 722 727 731 731 739 729 741 740 744 747 751 757 762 767 768 774 778 783 789 792 796 800 803 807 810 813 816 819 821 823 826 828 830 831 833 835 837 839 840 842
772 760 768 764 760 741 735 733 737 739 735 737 732 739 737 743 748 748 751 754 759 764 769 771 775 780 784 789 794 797 801 805 809 812 814 817 820 822 825 827 829 831 832 835 837 839 841 842 844
767 758 770 764 750 739 739 738 742 743 737 735 739 737 742 746 749 752 754 758 762 766 770 775 777 781 786 790 795 798 802 806 811 813 816 818 821 824 826 828 830 831 834 836 838 840 842 844 845
769 759 764 754 747 743 747 742 751 745 741 737 730 746 740 747 754 756 758 761 765 769 773 777 780 783 788 791 795 799 803 807 811 814 817 820 822 825 827 829 831 832 834 837 839 841 843 845 846
760 758 762 752 755 756 748 755 748 749 746 732 737 747 746 757 758 758 760 763 768 772 775 778 783 785 789 793 797 800 804 808 812 815 818 821 824 826 828 830 832 834 835 837 840 842 844 846 847
764 770 765 753 751 752 754 767 749 746 749 739 740 740 749 757 761 760 762 765 769 773 777 779 783 787 790 794 797 802 806 809 813 816 819 822 826 827 829 832 833 834 836 838 840 843 845 846 847
767 765 756 751 749 756 760 764 763 767 756 746 743 742 749 754 758 762 761 764 768 772 776 780 782 785 790 793 796 802 807 810 814 817 819 823 826 828 830 832 833 834 836 839 841 843 845 846 849
760 767 755 760 772 777 775 770 762 770 772 753 749 743 744 749 755 758 762 759 765 771 774 778 782 784 787 791 795 800 805 809 812 816 819 822 824 827 830 831 833 835 836 839 841 842 845 847 847
780 762 774 767 780 783 781 772 774 770 766 762 760 755 754 752 752 752 756 759 758 765 771 776 780 784 786 788 793 796 800 804 808 812 816 819 821 824 827 829 831 834 835 838 840 843 844 845 846
779 769 775 782 783 783 780 777 775 765 762 761 763 761 759 756 751 750 752 754 756 759 767 772 777 781 785 786 790 793 796 800 804 808 813 816 818 820 824 826 829 831 833 836 838 840 842 844 845
788 787 785 781 780 778 781 773 772 762 760 756 758 759 755 751 748 747 747 750 754 755 761 768 773 778 782 784 787 790 793 796 801 804 808 812 815 817 821 823 826 828 830 833 835 837 839 841 843
790 791 777 774 781 787 778 778 767 755 758 759 757 754 751 750 749 744 744 747 749 752 756 762 770 775 778 780 784 787 790 793 797 800 805 809 812 814 818 820 822 824 827 830 832 834 837 838 840
784 782 779 774 776 784 787 786 763 755 759 763 760 757 752 746 744 743 742 741 743 747 752 757 765 770 775 778 781 783 787 791 794 797 801 805 808 811 815 817 819 821 824 827 829 831 833 834 835
773 791 791 786 774 778 789 787 775 770 771 769 764 762 756 749 741 739 737 736 737 740 747 752 758 766 770 776 778 780 783 787 790 793 797 801 805 807 810 812 815 818 821 823 825 827 829 830 832
805 799 791 787 782 781 783 781 775 772 770 766 763 763 758 752 745 741 736 731 731 734 739 747 753 760 766 771 775 777 779 782 785 788 791 795 800 803 806 808 811 813 816 819 821 823 825 826 827
801 797 791 780 780 788 785 780 771 766 764 762 758 757 755 750 743 740 737 733 731 733 733 740 747 754 762 764 767 770 772 775 779 783 786 790 794 798 801 804 807 809 811 813 815 818 820 821 823
796 794 787 784 781 790 783 776 768 777 780 777 754 752 749 748 739 743 740 734 732 735 732 734 740 747 754 758 761 765 767 771 774 778 781 784 787 791 795 799 802 804 806 809 811 812 815 817 818
796 801 800 799 791 778 769 772 785 788 794 791 766 748 743 746 748 745 741 736 731 730 731 731 735 740 746 752 756 759 762 765 767 771 775 778 783 786 789 792 795 798 800 802 805 808 810 811 813
801 801 802 796 793 788 776 789 807 803 805 800 789 774 766 758 754 746 741 740 737 733 729 729 731 736 741 747 749 751 754 755 760 765 770 773 777 780 783 786 789 791 794 797 799 803 805 808 806
806 801 797 793 785 783 780 788 824 817 820 812 812 797 791 780 767 759 755 751 743 741 737 732 729 731 735 742 747 749 751 753 756 761 763 765 769 771 776 780 783 786 788 790 792 795 797 800 802
804 791 778 775 775 794 783 790 825 834 838 828 828 822 810 800 786 778 776 767 759 755 748 740 732 728 731 737 743 747 751 753 753 755 756 760 764 766 769 773 776 778 780 782 784 788 791 792 793
797 795 785 790 794 791 779 808 840 842 838 838 838 832 826 816 804 794 785 778 774 767 759 750 742 736 735 736 737 742 746 749 750 752 753 754 760 762 762 765 768 771 773 774 777 778 781 783 785
808 811 811 813 790 783 795 817 837 842 840 836 833 833 827 820 811 801 794 787 782 775 768 761 755 749 746 746 743 740 743 744 747 748 748 752 752 753 755 758 761 763 768 769 770 772 773 776 777
816 815 811 818 789 804 800 833 836 826 836 838 837 829 826 824 817 807 800 793 788 781 776 771 766 761 757 755 752 748 745 743 743 742 743 745 747 748 749 750 752 757 761 763 765 765 767 769 770
819 818 818 814 817 806 793 800 817 825 835 836 831 832 824 818 816 811 804 798 795 790 785 780 775 771 768 763 756 756 757 755 751 747 746 745 745 745 744 747 749 752 752 753 756 758 761 762 763
820 823 829 832 818 816 806 817 814 819 824 822 822 818 816 812 814 811 808 801 799 796 792 788 783 780 776 772 770 767 765 764 762 757 755 753 750 748 745 744 744 745 746 746 747 750 754 755 757
824 825 824 833 832 823 823 826 820 815 817 812 810 808 810 808 808 811 808 805 802 800 797 794 789 785 783 781 779 778 774 770 766 767 757 759 753 753 749 746 744 742 742 742 742 745 747 748 748